| time (UTC) | temp C | wind direction | speed KPH | gust KPH | rain 1hr cm | rain 24hr cm | rain mn cm | humidity % | barometer mb |
| 20260508023352 | 3 | 258 | 1.6 | 1.6 | 0.00 | 0.00 | 0.00 | 92 | 1015.4 |
| 20260508022848 | 3 | 259 | 1.6 | 1.6 | 0.00 | 0.00 | 0.00 | 91 | 1015.5 |
| 20260508022344 | 4 | 256 | 1.6 | 1.6 | 0.00 | 0.00 | 0.00 | 90 | 1015.2 |
| 20260508021841 | 4 | 256 | 1.6 | 1.6 | 0.00 | 0.00 | 0.00 | 89 | 1015.3 |
| 20260508021337 | 4 | 256 | 0.0 | 1.6 | 0.00 | 0.00 | 0.00 | 89 | 1015.0 |
| 20260508020828 | 5 | 262 | 3.2 | 3.2 | 0.00 | 0.00 | 0.00 | 88 | 1015.0 |
| 20260508020326 | 5 | 259 | 1.6 | 1.6 | 0.00 | 0.00 | 0.00 | 87 | 1015.0 |
| 20260508015823 | 5 | 255 | 0.0 | 1.6 | 0.00 | 0.00 | 0.00 | 85 | 1015.0 |
| 20260508015320 | 5 | 255 | 1.6 | 1.6 | 0.00 | 0.00 | 0.00 | 84 | 1014.7 |
| 20260508014817 | 6 | 255 | 1.6 | 1.6 | 0.00 | 0.00 | 0.00 | 83 | 1014.7 |
| 20260508014314 | 6 | 254 | 0.0 | 0.0 | 0.00 | 0.00 | 0.00 | 82 | 1014.8 |
| 20260508013809 | 6 | 256 | 1.6 | 3.2 | 0.00 | 0.00 | 0.00 | 80 | 1015.0 |
| 20260508013306 | 7 | 254 | 0.0 | 0.0 | 0.00 | 0.00 | 0.00 | 79 | 1014.6 |
| 20260508012803 | 7 | 254 | 1.6 | 1.6 | 0.00 | 0.00 | 0.00 | 75 | 1014.4 |
| 20260508012301 | 8 | 254 | 0.0 | 1.6 | 0.00 | 0.00 | 0.00 | 76 | 1014.3 |
| 20260508011758 | 8 | 254 | 0.0 | 0.0 | 0.00 | 0.00 | 0.00 | 72 | 1014.5 |
| 20260508011256 | 9 | 253 | 0.0 | 0.0 | 0.00 | 0.00 | 0.00 | 65 | 1014.3 |
| 20260508010752 | 10 | 269 | 1.6 | 3.2 | 0.00 | 0.00 | 0.00 | 57 | 1014.3 |
| 20260508010250 | 10 | 267 | 3.2 | 3.2 | 0.00 | 0.00 | 0.00 | 54 | 1014.3 |
| 20260508005747 | 10 | 257 | 1.6 | 1.6 | 0.00 | 0.00 | 0.00 | 55 | 1014.1 |
| 20260508005244 | 11 | 239 | 1.6 | 1.6 | 0.00 | 0.00 | 0.00 | 53 | 1014.0 |
| 20260508004739 | 10 | 259 | 0.0 | 1.6 | 0.00 | 0.00 | 0.00 | 56 | 1014.0 |
| 20260508004236 | 11 | 278 | 1.6 | 1.6 | 0.00 | 0.00 | 0.00 | 52 | 1014.2 |
| 20260508003733 | 11 | 264 | 1.6 | 1.6 | 0.00 | 0.00 | 0.00 | 51 | 1013.8 |
| 20260508003230 | 12 | 258 | 0.0 | 0.0 | 0.00 | 0.00 | 0.00 | 47 | 1013.8 |
| 20260508002726 | 12 | 261 | 1.6 | 1.6 | 0.00 | 0.00 | 0.00 | 47 | 1013.5 |
| 20260508002224 | 12 | 92 | 3.2 | 4.8 | 0.00 | 0.00 | 0.00 | 44 | 1013.6 |
| 20260508001719 | 12 | 104 | 3.2 | 4.8 | 0.00 | 0.00 | 0.00 | 47 | 1013.6 |
| 20260508001215 | 12 | 264 | 1.6 | 1.6 | 0.00 | 0.00 | 0.00 | 44 | 1013.4 |
| 20260508000712 | 12 | 304 | 1.6 | 1.6 | 0.00 | 0.00 | 0.00 | 46 | 1013.2 |
| 20260508000212 | 12 | 280 | 3.2 | 3.2 | 0.00 | 0.00 | 0.00 | 44 | 1013.1 |
| 20260507235705 | 13 | 251 | 1.6 | 3.2 | 0.00 | 0.00 | 0.00 | 42 | 1013.1 |
| 20260507235203 | 13 | 8 | 4.8 | 4.8 | 0.00 | 0.00 | 0.00 | 42 | 1013.1 |
| 20260507234700 | 13 | 14 | 1.6 | 3.2 | 0.00 | 0.00 | 0.00 | 42 | 1012.9 |
| 20260507234156 | 13 | 261 | 1.6 | 3.2 | 0.00 | 0.00 | 0.00 | 43 | 1012.7 |
| 20260507233653 | 13 | 198 | 1.6 | 1.6 | 0.00 | 0.00 | 0.00 | 41 | 1012.8 |
| 20260507233151 | 13 | 256 | 1.6 | 1.6 | 0.00 | 0.00 | 0.00 | 42 | 1012.9 |
| 20260507232648 | 13 | 94 | 4.8 | 4.8 | 0.00 | 0.00 | 0.00 | 41 | 1012.7 |
| 20260507232145 | 13 | 90 | 4.8 | 6.4 | 0.00 | 0.00 | 0.00 | 42 | 1012.9 |
| 20260507231641 | 13 | 295 | 3.2 | 4.8 | 0.00 | 0.00 | 0.00 | 44 | 1012.6 |
| 20260507231138 | 14 | 327 | 3.2 | 3.2 | 0.00 | 0.00 | 0.00 | 41 | 1012.6 |
| 20260507230635 | 14 | 151 | 3.2 | 4.8 | 0.00 | 0.00 | 0.00 | 39 | 1012.5 |
| 20260507230132 | 13 | 29 | 6.4 | 9.7 | 0.00 | 0.00 | 0.00 | 39 | 1012.5 |
| 20260507225632 | 14 | 43 | 4.8 | 4.8 | 0.00 | 0.00 | 0.00 | 41 | 1012.6 |
| 20260507225129 | 14 | 140 | 8.0 | 9.7 | 0.00 | 0.00 | 0.00 | 40 | 1012.4 |
| 20260507224624 | 14 | 120 | 6.4 | 11.3 | 0.00 | 0.00 | 0.00 | 39 | 1012.7 |
| 20260507224121 | 15 | 211 | 1.6 | 1.6 | 0.00 | 0.00 | 0.00 | 39 | 1012.4 |
| 20260507223617 | 15 | 347 | 6.4 | 6.4 | 0.00 | 0.00 | 0.00 | 39 | 1012.4 |
| 20260507223114 | 15 | 68 | 4.8 | 6.4 | 0.00 | 0.00 | 0.00 | 41 | 1012.4 |
| 20260507222611 | 15 | 125 | 4.8 | 4.8 | 0.00 | 0.00 | 0.00 | 38 | 1012.4 |
| 20260507222108 | 15 | 279 | 9.7 | 16.1 | 0.00 | 0.00 | 0.00 | 39 | 1012.3 |
| 20260507221604 | 15 | 179 | 6.4 | 11.3 | 0.00 | 0.00 | 0.00 | 37 | 1012.2 |
| 20260507221101 | 16 | 46 | 4.8 | 6.4 | 0.00 | 0.00 | 0.00 | 37 | 1012.0 |
| 20260507220558 | 16 | 199 | 8.0 | 9.7 | 0.00 | 0.00 | 0.00 | 37 | 1012.2 |
| 20260507220055 | 15 | 40 | 3.2 | 3.2 | 0.00 | 0.00 | 0.00 | 41 | 1012.1 |
| 20260507215551 | 15 | 273 | 1.6 | 1.6 | 0.00 | 0.00 | 0.00 | 39 | 1012.0 |
| 20260507215050 | 15 | 218 | 3.2 | 4.8 | 0.00 | 0.00 | 0.00 | 40 | 1011.8 |
| 20260507214546 | 15 | 353 | 8.0 | 9.7 | 0.00 | 0.00 | 0.00 | 39 | 1011.9 |
| 20260507214042 | 15 | 108 | 4.8 | 6.4 | 0.00 | 0.00 | 0.00 | 38 | 1011.9 |
| 20260507213539 | 16 | 65 | 4.8 | 9.7 | 0.00 | 0.00 | 0.00 | 36 | 1011.7 |
| 20260507213036 | 16 | 23 | 4.8 | 6.4 | 0.00 | 0.00 | 0.00 | 39 | 1011.8 |
| 20260507212532 | 16 | 46 | 4.8 | 4.8 | 0.00 | 0.00 | 0.00 | 39 | 1011.9 |
| 20260507212029 | 16 | 246 | 3.2 | 3.2 | 0.00 | 0.00 | 0.00 | 42 | 1011.7 |
| 20260507211526 | 15 | 302 | 1.6 | 3.2 | 0.00 | 0.00 | 0.00 | 41 | 1011.7 |
| 20260507211022 | 15 | 138 | 11.3 | 14.5 | 0.00 | 0.00 | 0.00 | 36 | 1011.8 |
| 20260507210519 | 16 | 25 | 4.8 | 6.4 | 0.00 | 0.00 | 0.00 | 36 | 1011.7 |
| 20260507210016 | 16 | 106 | 3.2 | 4.8 | 0.00 | 0.00 | 0.00 | 39 | 1011.7 |
| 20260507205512 | 16 | 236 | 3.2 | 6.4 | 0.00 | 0.00 | 0.00 | 36 | 1011.5 |
| 20260507205008 | 15 | 129 | 4.8 | 4.8 | 0.00 | 0.00 | 0.00 | 39 | 1011.8 |
| 20260507204505 | 15 | 129 | 4.8 | 4.8 | 0.00 | 0.00 | 0.00 | 39 | 1011.8 |
| 20260507204003 | 15 | 231 | 1.6 | 1.6 | 0.00 | 0.00 | 0.00 | 41 | 1011.7 |
| 20260507203500 | 15 | 271 | 6.4 | 9.7 | 0.00 | 0.00 | 0.00 | 37 | 1011.9 |
| 20260507202957 | 16 | 189 | 3.2 | 3.2 | 0.00 | 0.00 | 0.00 | 38 | 1011.6 |
| 20260507202453 | 15 | 255 | 4.8 | 4.8 | 0.00 | 0.00 | 0.00 | 41 | 1011.6 |
| 20260507201949 | 16 | 73 | 8.0 | 12.9 | 0.00 | 0.00 | 0.00 | 37 | 1011.5 |
| 20260507201444 | 16 | 170 | 8.0 | 12.9 | 0.00 | 0.00 | 0.00 | 37 | 1011.6 |
| 20260507200941 | 17 | 190 | 6.4 | 6.4 | 0.00 | 0.00 | 0.00 | 36 | 1011.7 |
| 20260507200436 | 16 | 271 | 3.2 | 3.2 | 0.00 | 0.00 | 0.00 | 39 | 1011.8 |
| 20260507195932 | 16 | 178 | 4.8 | 4.8 | 0.00 | 0.00 | 0.00 | 40 | 1011.7 |
| 20260507195430 | 16 | 248 | 3.2 | 3.2 | 0.00 | 0.00 | 0.00 | 39 | 1012.0 |
| 20260507194928 | 17 | 146 | 9.7 | 11.3 | 0.00 | 0.00 | 0.00 | 36 | 1011.9 |
| 20260507194424 | 16 | 103 | 8.0 | 11.3 | 0.00 | 0.00 | 0.00 | 36 | 1012.2 |
| 20260507193920 | 16 | 244 | 1.6 | 1.6 | 0.00 | 0.00 | 0.00 | 37 | 1011.9 |
| 20260507193418 | 15 | 73 | 3.2 | 3.2 | 0.00 | 0.00 | 0.00 | 41 | 1012.1 |
| 20260507192914 | 15 | 180 | 1.6 | 3.2 | 0.00 | 0.00 | 0.00 | 44 | 1012.3 |
| 20260507192410 | 15 | 232 | 4.8 | 9.7 | 0.00 | 0.00 | 0.00 | 40 | 1012.3 |
| 20260507191907 | 15 | 246 | 1.6 | 3.2 | 0.00 | 0.00 | 0.00 | 39 | 1012.2 |
| 20260507191403 | 16 | 253 | 4.8 | 9.7 | 0.00 | 0.00 | 0.00 | 42 | 1012.3 |
| 20260507190859 | 16 | 188 | 6.4 | 9.7 | 0.00 | 0.00 | 0.00 | 42 | 1012.3 |
| 20260507190358 | 15 | 67 | 8.0 | 11.3 | 0.00 | 0.00 | 0.00 | 45 | 1012.3 |
| 20260507185856 | 15 | 313 | 4.8 | 4.8 | 0.00 | 0.00 | 0.00 | 47 | 1012.3 |
| 20260507185353 | 15 | 183 | 6.4 | 9.7 | 0.00 | 0.00 | 0.00 | 41 | 1012.3 |
| 20260507184850 | 15 | 234 | 1.6 | 3.2 | 0.00 | 0.00 | 0.00 | 42 | 1012.4 |
| 20260507184348 | 15 | 357 | 6.4 | 6.4 | 0.00 | 0.00 | 0.00 | 47 | 1012.3 |
| 20260507183844 | 15 | 357 | 3.2 | 4.8 | 0.00 | 0.00 | 0.00 | 45 | 1012.4 |
| 20260507183342 | 15 | 324 | 4.8 | 4.8 | 0.00 | 0.00 | 0.00 | 44 | 1012.5 |
| 20260507182839 | 14 | 269 | 3.2 | 6.4 | 0.00 | 0.00 | 0.00 | 49 | 1012.4 |
| 20260507182335 | 14 | 86 | 6.4 | 11.3 | 0.00 | 0.00 | 0.00 | 46 | 1012.5 |
| 20260507181831 | 15 | 16 | 6.4 | 6.4 | 0.00 | 0.00 | 0.00 | 48 | 1012.5 |
| 20260507181327 | 15 | 125 | 8.0 | 11.3 | 0.00 | 0.00 | 0.00 | 44 | 1012.4 |
| 20260507180824 | 15 | 166 | 4.8 | 4.8 | 0.00 | 0.00 | 0.00 | 45 | 1012.8 |
| 20260507180321 | 14 | 90 | 4.8 | 4.8 | 0.00 | 0.00 | 0.00 | 45 | 1012.7 |
| 20260507175817 | 14 | 175 | 3.2 | 3.2 | 0.00 | 0.00 | 0.00 | 46 | 1012.6 |
| 20260507175314 | 14 | 278 | 3.2 | 3.2 | 0.00 | 0.00 | 0.00 | 47 | 1012.7 |
| 20260507174811 | 15 | 325 | 3.2 | 3.2 | 0.00 | 0.00 | 0.00 | 49 | 1012.7 |
| 20260507173558 | 13 | 27 | 4.8 | 4.8 | 0.00 | 0.00 | 0.00 | 50 | 1013.0 |
| 20260507173055 | 13 | 27 | 4.8 | 4.8 | 0.00 | 0.00 | 0.00 | 50 | 1013.0 |
| 20260507172550 | 13 | 47 | 3.2 | 4.8 | 0.00 | 0.00 | 0.00 | 49 | 1013.0 |
| 20260507172048 | 15 | 25 | 6.4 | 9.7 | 0.00 | 0.00 | 0.00 | 46 | 1013.0 |
| 20260507171543 | 15 | 300 | 3.2 | 3.2 | 0.00 | 0.00 | 0.00 | 54 | 1013.1 |
| 20260507171040 | 15 | 186 | 4.8 | 4.8 | 0.00 | 0.00 | 0.00 | 48 | 1013.2 |
| 20260507170536 | 15 | 275 | 8.0 | 9.7 | 0.00 | 0.00 | 0.00 | 46 | 1013.3 |
| 20260507170033 | 14 | 241 | 1.6 | 3.2 | 0.00 | 0.00 | 0.00 | 53 | 1013.3 |
| 20260507165529 | 13 | 136 | 9.7 | 12.9 | 0.00 | 0.00 | 0.00 | 47 | 1013.2 |
| 20260507165026 | 15 | 198 | 3.2 | 4.8 | 0.00 | 0.00 | 0.00 | 46 | 1013.2 |
| 20260507164523 | 15 | 306 | 1.6 | 3.2 | 0.00 | 0.00 | 0.00 | 47 | 1013.3 |
| 20260507164020 | 15 | 221 | 6.4 | 9.7 | 0.00 | 0.00 | 0.00 | 55 | 1013.6 |
| 20260507163516 | 15 | 91 | 6.4 | 6.4 | 0.00 | 0.00 | 0.00 | 46 | 1013.6 |
| 20260507163014 | 13 | 205 | 1.6 | 3.2 | 0.00 | 0.00 | 0.00 | 46 | 1013.5 |
| 20260507162509 | 13 | 214 | 1.6 | 3.2 | 0.00 | 0.00 | 0.00 | 48 | 1013.3 |
| 20260507162006 | 13 | 223 | 3.2 | 3.2 | 0.00 | 0.00 | 0.00 | 49 | 1013.7 |
| 20260507161502 | 13 | 29 | 4.8 | 6.4 | 0.00 | 0.00 | 0.00 | 46 | 1013.6 |
| 20260507160959 | 13 | 48 | 9.7 | 9.7 | 0.00 | 0.00 | 0.00 | 46 | 1013.6 |
| 20260507160455 | 13 | 261 | 0.0 | 0.0 | 0.00 | 0.00 | 0.00 | 50 | 1013.7 |
| 20260507155950 | 13 | 357 | 6.4 | 11.3 | 0.00 | 0.00 | 0.00 | 47 | 1014.0 |
| 20260507155447 | 13 | 203 | 1.6 | 3.2 | 0.00 | 0.00 | 0.00 | 49 | 1014.0 |
| 20260507154944 | 14 | 220 | 3.2 | 3.2 | 0.00 | 0.00 | 0.00 | 45 | 1013.6 |
| 20260507154440 | 14 | 249 | 3.2 | 4.8 | 0.00 | 0.00 | 0.00 | 45 | 1014.0 |
| 20260507153938 | 13 | 241 | 1.6 | 1.6 | 0.00 | 0.00 | 0.00 | 50 | 1014.1 |
| 20260507153434 | 13 | 292 | 1.6 | 1.6 | 0.00 | 0.00 | 0.00 | 49 | 1014.0 |
| 20260507152005 | 12 | 355 | 4.8 | 4.8 | 0.00 | 0.00 | 0.00 | 48 | 1014.1 |
| 20260507151501 | 12 | 355 | 4.8 | 4.8 | 0.00 | 0.00 | 0.00 | 48 | 1014.1 |
| 20260507150958 | 13 | 62 | 4.8 | 4.8 | 0.00 | 0.00 | 0.00 | 47 | 1014.0 |
| 20260507150455 | 13 | 271 | 3.2 | 3.2 | 0.00 | 0.00 | 0.00 | 54 | 1014.2 |
| 20260507145951 | 13 | 157 | 4.8 | 6.4 | 0.00 | 0.00 | 0.00 | 47 | 1014.2 |
| 20260507145447 | 13 | 201 | 3.2 | 3.2 | 0.00 | 0.00 | 0.00 | 46 | 1014.2 |
| 20260507144944 | 13 | 249 | 1.6 | 1.6 | 0.00 | 0.00 | 0.00 | 46 | 1014.3 |
| 20260507144441 | 12 | 235 | 1.6 | 3.2 | 0.00 | 0.00 | 0.00 | 50 | 1014.4 |
| 20260507143938 | 13 | 263 | 4.8 | 9.7 | 0.00 | 0.00 | 0.00 | 48 | 1014.5 |
| 20260507143435 | 13 | 264 | 4.8 | 4.8 | 0.00 | 0.00 | 0.00 | 51 | 1014.6 |
| 20260507140155 | 12 | 169 | 6.4 | 9.7 | 0.00 | 0.00 | 0.00 | 54 | 1015.1 |
| 20260507135652 | 12 | 169 | 6.4 | 9.7 | 0.00 | 0.00 | 0.00 | 54 | 1015.1 |
| 20260507135149 | 12 | 248 | 0.0 | 1.6 | 0.00 | 0.00 | 0.00 | 56 | 1015.2 |
| 20260507134645 | 12 | 312 | 6.4 | 9.7 | 0.00 | 0.00 | 0.00 | 55 | 1015.2 |
| 20260507134141 | 12 | 229 | 3.2 | 3.2 | 0.00 | 0.00 | 0.00 | 59 | 1015.3 |
| 20260507133637 | 12 | 255 | 3.2 | 4.8 | 0.00 | 0.00 | 0.00 | 60 | 1015.3 |
| 20260507133135 | 12 | 166 | 3.2 | 6.4 | 0.00 | 0.00 | 0.00 | 60 | 1015.5 |
| 20260507132632 | 11 | 263 | 3.2 | 3.2 | 0.00 | 0.00 | 0.00 | 61 | 1015.5 |
| 20260507132128 | 11 | 199 | 1.6 | 3.2 | 0.00 | 0.00 | 0.00 | 66 | 1015.5 |
| 20260507131625 | 11 | 186 | 3.2 | 4.8 | 0.00 | 0.00 | 0.00 | 64 | 1015.4 |
| 20260507131123 | 10 | 214 | 3.2 | 3.2 | 0.00 | 0.00 | 0.00 | 76 | 1015.3 |
| 20260507130619 | 8 | 251 | 0.0 | 0.0 | 0.00 | 0.00 | 0.00 | 83 | 1015.4 |
| 20260507130117 | 8 | 251 | 0.0 | 0.0 | 0.00 | 0.00 | 0.00 | 89 | 1015.4 |
| 20260507125616 | 7 | 251 | 0.0 | 0.0 | 0.00 | 0.00 | 0.00 | 89 | 1015.4 |
| 20260507125113 | 7 | 251 | 0.0 | 0.0 | 0.00 | 0.00 | 0.00 | 92 | 1015.3 |
| 20260507124609 | 7 | 251 | 0.0 | 0.0 | 0.00 | 0.00 | 0.00 | 99 | 1015.4 |
| 20260507124107 | 6 | 251 | 0.0 | 0.0 | 0.00 | 0.00 | 0.00 | 99 | 1015.5 |
| 20260507123605 | 6 | 251 | 0.0 | 0.0 | 0.00 | 0.00 | 0.00 | 99 | 1015.6 |
| 20260507123101 | 6 | 251 | 0.0 | 0.0 | 0.00 | 0.00 | 0.00 | 99 | 1015.4 |
| 20260507122556 | 6 | 251 | 0.0 | 0.0 | 0.00 | 0.00 | 0.00 | 99 | 1015.5 |
| 20260507122053 | 6 | 251 | 0.0 | 0.0 | 0.00 | 0.00 | 0.00 | 99 | 1015.5 |
| 20260507121548 | 5 | 252 | 0.0 | 0.0 | 0.00 | 0.00 | 0.00 | 99 | 1015.5 |
| 20260507121045 | 3 | 252 | 0.0 | 0.0 | 0.00 | 0.00 | 0.00 | 99 | 1015.4 |
| 20260507120541 | 2 | 252 | 0.0 | 0.0 | 0.00 | 0.00 | 0.00 | 99 | 1015.5 |
| 20260507120038 | 2 | 252 | 0.0 | 0.0 | 0.00 | 0.00 | 0.00 | 99 | 1015.4 |
| 20260507115534 | 1 | 252 | 0.0 | 0.0 | 0.00 | 0.00 | 0.00 | 99 | 1015.6 |
| 20260507115030 | 1 | 252 | 0.0 | 0.0 | 0.00 | 0.00 | 0.00 | 99 | 1015.5 |
| 20260507114526 | 1 | 252 | 0.0 | 0.0 | 0.00 | 0.00 | 0.00 | 99 | 1015.5 |
| 20260507114024 | 1 | 252 | 0.0 | 0.0 | 0.00 | 0.00 | 0.00 | 99 | 1015.7 |
| 20260507113520 | 1 | 252 | 0.0 | 0.0 | 0.00 | 0.00 | 0.00 | 99 | 1015.6 |
| 20260507113018 | 1 | 252 | 0.0 | 0.0 | 0.00 | 0.00 | 0.00 | 99 | 1015.4 |
| 20260507112516 | 1 | 252 | 0.0 | 0.0 | 0.00 | 0.00 | 0.00 | 99 | 1015.5 |
| 20260507112012 | 1 | 252 | 0.0 | 0.0 | 0.00 | 0.00 | 0.00 | 99 | 1015.3 |
| 20260507111510 | 1 | 252 | 0.0 | 0.0 | 0.00 | 0.00 | 0.00 | 99 | 1015.5 |
| 20260507111005 | 1 | 253 | 0.0 | 0.0 | 0.00 | 0.00 | 0.00 | 99 | 1015.2 |
| 20260507110502 | 1 | 253 | 0.0 | 0.0 | 0.00 | 0.00 | 0.00 | 99 | 1015.0 |
| 20260507105958 | 0 | 252 | 0.0 | 0.0 | 0.00 | 0.00 | 0.00 | 99 | 1015.2 |
| 20260507105455 | 0 | 252 | 0.0 | 0.0 | 0.00 | 0.00 | 0.00 | 99 | 1015.2 |
| 20260507104952 | 0 | 252 | 0.0 | 0.0 | 0.00 | 0.00 | 0.00 | 99 | 1014.9 |
| 20260507104449 | 0 | 252 | 0.0 | 0.0 | 0.00 | 0.00 | 0.00 | 99 | 1014.9 |
| 20260507103944 | 0 | 252 | 0.0 | 0.0 | 0.00 | 0.00 | 0.00 | 99 | 1014.9 |
| 20260507103442 | 0 | 252 | 0.0 | 0.0 | 0.00 | 0.00 | 0.00 | 99 | 1014.8 |
| 20260507102937 | 0 | 252 | 0.0 | 0.0 | 0.00 | 0.00 | 0.00 | 99 | 1014.9 |
| 20260507102434 | 0 | 252 | 0.0 | 0.0 | 0.00 | 0.00 | 0.00 | 99 | 1015.0 |
| 20260507101931 | 1 | 246 | 0.0 | 0.0 | 0.00 | 0.00 | 0.00 | 99 | 1014.9 |
| 20260507101426 | 1 | 245 | 0.0 | 0.0 | 0.00 | 0.00 | 0.00 | 99 | 1014.9 |
| 20260507100923 | 1 | 246 | 0.0 | 0.0 | 0.00 | 0.00 | 0.00 | 99 | 1014.8 |
| 20260507100420 | 1 | 246 | 0.0 | 0.0 | 0.00 | 0.00 | 0.00 | 99 | 1014.8 |
| 20260507095919 | 1 | 246 | 0.0 | 0.0 | 0.00 | 0.00 | 0.00 | 99 | 1014.8 |
| 20260507095415 | 1 | 246 | 0.0 | 0.0 | 0.00 | 0.00 | 0.00 | 99 | 1014.8 |
| 20260507094913 | 1 | 246 | 0.0 | 0.0 | 0.00 | 0.00 | 0.00 | 99 | 1014.7 |
| 20260507094408 | 1 | 246 | 0.0 | 0.0 | 0.00 | 0.00 | 0.00 | 99 | 1014.6 |
| 20260507093906 | 1 | 246 | 0.0 | 0.0 | 0.00 | 0.00 | 0.00 | 99 | 1014.6 |
| 20260507093404 | 1 | 246 | 0.0 | 0.0 | 0.00 | 0.00 | 0.00 | 99 | 1014.6 |
| 20260507092902 | 1 | 246 | 0.0 | 0.0 | 0.00 | 0.00 | 0.00 | 99 | 1014.8 |
| 20260507092358 | 1 | 246 | 0.0 | 0.0 | 0.00 | 0.00 | 0.00 | 99 | 1014.8 |
| 20260507091854 | 1 | 246 | 0.0 | 0.0 | 0.00 | 0.00 | 0.00 | 99 | 1014.7 |
| 20260507091351 | 1 | 246 | 0.0 | 0.0 | 0.00 | 0.00 | 0.00 | 99 | 1014.6 |
| 20260507090846 | 1 | 246 | 0.0 | 0.0 | 0.00 | 0.00 | 0.00 | 99 | 1014.9 |
| 20260507090343 | 2 | 245 | 0.0 | 0.0 | 0.00 | 0.00 | 0.00 | 99 | 1014.7 |
| 20260507085840 | 2 | 246 | 0.0 | 0.0 | 0.00 | 0.00 | 0.00 | 99 | 1015.0 |
| 20260507085337 | 2 | 246 | 0.0 | 0.0 | 0.00 | 0.00 | 0.00 | 99 | 1014.9 |
| 20260507084834 | 2 | 246 | 0.0 | 0.0 | 0.00 | 0.00 | 0.00 | 99 | 1014.9 |
| 20260507084330 | 2 | 246 | 0.0 | 0.0 | 0.00 | 0.00 | 0.00 | 99 | 1014.9 |
| 20260507083828 | 2 | 246 | 0.0 | 0.0 | 0.00 | 0.00 | 0.00 | 99 | 1014.9 |
| 20260507083324 | 2 | 246 | 0.0 | 0.0 | 0.00 | 0.00 | 0.00 | 99 | 1015.0 |
| 20260507082820 | 2 | 246 | 0.0 | 0.0 | 0.00 | 0.00 | 0.00 | 99 | 1015.0 |
| 20260507082316 | 2 | 246 | 0.0 | 0.0 | 0.00 | 0.00 | 0.00 | 99 | 1015.0 |
| 20260507081814 | 3 | 246 | 0.0 | 0.0 | 0.00 | 0.00 | 0.00 | 99 | 1014.9 |
| 20260507081309 | 3 | 244 | 0.0 | 0.0 | 0.00 | 0.00 | 0.00 | 99 | 1015.0 |
| 20260507080806 | 3 | 244 | 0.0 | 0.0 | 0.00 | 0.00 | 0.00 | 99 | 1014.8 |
| 20260507080303 | 3 | 243 | 0.0 | 0.0 | 0.00 | 0.00 | 0.00 | 99 | 1014.9 |
| 20260507075758 | 3 | 243 | 0.0 | 0.0 | 0.00 | 0.00 | 0.00 | 99 | 1014.8 |
| 20260507075254 | 3 | 243 | 0.0 | 0.0 | 0.00 | 0.00 | 0.00 | 99 | 1014.8 |
| 20260507074751 | 4 | 243 | 0.0 | 0.0 | 0.00 | 0.00 | 0.00 | 99 | 1014.8 |
| 20260507074249 | 4 | 244 | 0.0 | 0.0 | 0.00 | 0.00 | 0.00 | 99 | 1014.7 |
| 20260507073745 | 5 | 244 | 0.0 | 0.0 | 0.00 | 0.00 | 0.00 | 98 | 1014.7 |
| 20260507073242 | 5 | 242 | 0.0 | 0.0 | 0.00 | 0.00 | 0.00 | 98 | 1014.6 |
| 20260507072740 | 5 | 242 | 0.0 | 0.0 | 0.00 | 0.00 | 0.00 | 98 | 1014.7 |
| 20260507072237 | 5 | 242 | 0.0 | 0.0 | 0.00 | 0.00 | 0.00 | 98 | 1014.5 |
| 20260507071734 | 5 | 242 | 0.0 | 0.0 | 0.00 | 0.00 | 0.00 | 98 | 1014.6 |
| 20260507071230 | 6 | 242 | 0.0 | 0.0 | 0.00 | 0.00 | 0.00 | 97 | 1014.5 |
| 20260507070727 | 6 | 243 | 0.0 | 0.0 | 0.00 | 0.00 | 0.00 | 97 | 1014.7 |
| 20260507070224 | 6 | 242 | 0.0 | 0.0 | 0.00 | 0.00 | 0.00 | 97 | 1014.8 |
| 20260507065721 | 7 | 242 | 0.0 | 0.0 | 0.00 | 0.00 | 0.00 | 96 | 1014.6 |
| 20260507065218 | 7 | 242 | 0.0 | 0.0 | 0.00 | 0.00 | 0.00 | 96 | 1014.7 |
| 20260507064715 | 7 | 242 | 0.0 | 0.0 | 0.00 | 0.00 | 0.00 | 96 | 1014.7 |
| 20260507064215 | 7 | 242 | 0.0 | 0.0 | 0.00 | 0.00 | 0.00 | 98 | 1014.7 |
| 20260507063711 | 7 | 242 | 0.0 | 0.0 | 0.00 | 0.00 | 0.00 | 98 | 1014.8 |
| 20260507063207 | 7 | 242 | 0.0 | 0.0 | 0.00 | 0.00 | 0.00 | 98 | 1014.7 |
| 20260507062705 | 7 | 242 | 0.0 | 0.0 | 0.00 | 0.00 | 0.00 | 99 | 1014.6 |
| 20260507062202 | 7 | 242 | 0.0 | 0.0 | 0.00 | 0.00 | 0.00 | 99 | 1014.7 |
| 20260507061700 | 7 | 242 | 0.0 | 0.0 | 0.00 | 0.00 | 0.00 | 99 | 1014.6 |
| 20260507061158 | 8 | 242 | 0.0 | 0.0 | 0.00 | 0.00 | 0.00 | 99 | 1014.7 |
| 20260507060656 | 8 | 242 | 0.0 | 0.0 | 0.00 | 0.00 | 0.00 | 99 | 1015.0 |
| 20260507060152 | 8 | 242 | 0.0 | 0.0 | 0.00 | 0.00 | 0.00 | 99 | 1014.6 |
| 20260507055648 | 8 | 242 | 0.0 | 0.0 | 0.00 | 0.00 | 0.00 | 99 | 1014.9 |
| 20260507055144 | 8 | 242 | 0.0 | 0.0 | 0.00 | 0.00 | 0.00 | 99 | 1014.8 |
| 20260507054640 | 8 | 242 | 0.0 | 0.0 | 0.00 | 0.00 | 0.00 | 98 | 1014.9 |
| 20260507054137 | 8 | 242 | 0.0 | 0.0 | 0.00 | 0.00 | 0.00 | 98 | 1014.9 |
| 20260507053635 | 8 | 242 | 0.0 | 0.0 | 0.00 | 0.00 | 0.00 | 98 | 1015.0 |
| 20260507053132 | 8 | 242 | 0.0 | 0.0 | 0.00 | 0.00 | 0.00 | 98 | 1015.1 |
| 20260507052631 | 8 | 242 | 0.0 | 0.0 | 0.00 | 0.00 | 0.00 | 98 | 1015.1 |
| 20260507052126 | 8 | 242 | 0.0 | 0.0 | 0.00 | 0.00 | 0.00 | 97 | 1015.3 |
| 20260507051624 | 8 | 242 | 0.0 | 0.0 | 0.00 | 0.00 | 0.00 | 97 | 1015.1 |
| 20260507051121 | 8 | 242 | 0.0 | 0.0 | 0.00 | 0.00 | 0.00 | 97 | 1015.1 |
| 20260507050618 | 8 | 242 | 0.0 | 0.0 | 0.00 | 0.00 | 0.00 | 97 | 1015.2 |
| 20260507050114 | 8 | 242 | 0.0 | 0.0 | 0.00 | 1.09 | 1.09 | 97 | 1015.2 |
| 20260507045612 | 8 | 242 | 0.0 | 0.0 | 0.00 | 1.09 | 1.09 | 97 | 1015.4 |
| 20260507045108 | 8 | 242 | 0.0 | 0.0 | 0.00 | 1.09 | 1.09 | 97 | 1015.2 |
| 20260507044605 | 8 | 242 | 0.0 | 0.0 | 0.00 | 1.09 | 1.09 | 98 | 1015.2 |
| 20260507044102 | 8 | 242 | 0.0 | 0.0 | 0.00 | 1.09 | 1.09 | 97 | 1015.2 |
| 20260507043557 | 8 | 242 | 0.0 | 0.0 | 0.00 | 1.09 | 1.09 | 97 | 1015.1 |
| 20260507043055 | 8 | 242 | 0.0 | 0.0 | 0.00 | 1.09 | 1.09 | 97 | 1015.1 |
| 20260507042551 | 8 | 242 | 0.0 | 0.0 | 0.00 | 1.09 | 1.09 | 97 | 1015.0 |
| 20260507042046 | 8 | 242 | 0.0 | 0.0 | 0.00 | 1.09 | 1.09 | 97 | 1015.0 |
| 20260507041544 | 8 | 242 | 0.0 | 0.0 | 0.00 | 1.09 | 1.09 | 97 | 1015.1 |
| 20260507041041 | 8 | 242 | 0.0 | 0.0 | 0.00 | 1.09 | 1.09 | 97 | 1014.9 |
| 20260507040537 | 8 | 242 | 0.0 | 0.0 | 0.00 | 1.09 | 1.09 | 97 | 1015.0 |
| 20260507040033 | 9 | 242 | 0.0 | 0.0 | 0.00 | 1.09 | 1.09 | 97 | 1015.0 |
| 20260507035529 | 9 | 242 | 0.0 | 0.0 | 0.00 | 1.09 | 1.09 | 97 | 1015.1 |
| 20260507035026 | 9 | 242 | 0.0 | 0.0 | 0.00 | 1.09 | 1.09 | 97 | 1015.1 |
| 20260507034523 | 9 | 242 | 0.0 | 0.0 | 0.00 | 1.09 | 1.09 | 97 | 1014.9 |
| 20260507034021 | 9 | 242 | 0.0 | 0.0 | 0.00 | 1.09 | 1.09 | 97 | 1015.1 |
| 20260507033518 | 9 | 242 | 0.0 | 0.0 | 0.00 | 1.09 | 1.09 | 97 | 1014.8 |
| 20260507033015 | 9 | 242 | 0.0 | 0.0 | 0.00 | 1.09 | 1.09 | 97 | 1015.0 |
| 20260507032512 | 9 | 242 | 0.0 | 0.0 | 0.00 | 1.09 | 1.09 | 97 | 1015.3 |
| 20260507032009 | 9 | 242 | 0.0 | 0.0 | 0.00 | 1.09 | 1.09 | 97 | 1015.1 |
| 20260507031504 | 9 | 242 | 0.0 | 0.0 | 0.00 | 1.09 | 1.09 | 97 | 1015.0 |
| 20260507025453 | 10 | 242 | 0.0 | 0.0 | 0.00 | 1.09 | 1.09 | 97 | 1014.7 |
| 20260507024951 | 10 | 242 | 0.0 | 0.0 | 0.00 | 1.09 | 1.09 | 97 | 1014.7 |
| 20260507024448 | 10 | 242 | 0.0 | 0.0 | 0.00 | 1.09 | 1.09 | 97 | 1014.6 |
| 20260507023944 | 10 | 242 | 0.0 | 0.0 | 0.00 | 1.09 | 1.09 | 98 | 1014.5 |